EJU3596 LIEO-LIMC

Flight info

Callsign EJU3596
Flight time N/A
Altitude 34000
Route BATOX DCT BEGUD DCT UPDIN DCT SPEZI DCT IDONA DCT MEBUR
Aircraft A21N/M-SDE2E3FGHIRWXY/LB1

Departure

Time 2026-05-05 19:01
Airport Olbia Costa Smeralda Airport (LIEO)

Arrival

Time N/A
Airport Milan Malpensa International Airport (LIMC)
Time Latitude Longitude Altitude Speed Heading
2026-05-05 18:48 40.90263 9.51707 48 ft 0 kts 326°
2026-05-05 18:53 40.90252 9.51719 49 ft 2 kts 308°
2026-05-05 18:53 40.90244 9.51736 49 ft 2 kts 292°
2026-05-05 18:53 40.90240 9.51755 49 ft 2 kts 275°
2026-05-05 18:54 40.90241 9.51775 48 ft 2 kts 258°
2026-05-05 18:54 40.90246 9.51794 48 ft 2 kts 240°
2026-05-05 18:54 40.90254 9.51810 48 ft 1 kts 233°
2026-05-05 18:54 40.90257 9.51815 48 ft 0 kts 236°
2026-05-05 18:56 40.90255 9.51812 48 ft 0 kts 226°
2026-05-05 18:56 40.90244 9.51808 48 ft 2 kts 182°
2026-05-05 18:56 40.90202 9.51831 48 ft 8 kts 132°
2026-05-05 18:57 40.90161 9.51879 48 ft 7 kts 171°
2026-05-05 18:57 40.90108 9.51829 48 ft 13 kts 233°
2026-05-05 18:57 40.90044 9.51708 48 ft 18 kts 236°
2026-05-05 18:57 40.89958 9.51544 48 ft 21 kts 236°
2026-05-05 18:58 40.89874 9.51382 48 ft 21 kts 235°
2026-05-05 18:58 40.89791 9.51225 48 ft 20 kts 236°
2026-05-05 18:58 40.89712 9.51074 48 ft 19 kts 235°
2026-05-05 18:58 40.89635 9.50925 49 ft 19 kts 235°
2026-05-05 18:59 40.89559 9.50781 48 ft 18 kts 236°
2026-05-05 18:59 40.89486 9.50641 49 ft 18 kts 236°
2026-05-05 18:59 40.89412 9.50501 49 ft 18 kts 234°
2026-05-05 18:59 40.89307 9.50453 49 ft 16 kts 149°
2026-05-05 19:00 40.89263 9.50587 49 ft 14 kts 91°
2026-05-05 19:00 40.89329 9.50738 49 ft 40 kts 55°
2026-05-05 19:00 40.89634 9.51319 49 ft 111 kts 56°
2026-05-05 19:00 40.90192 9.52386 54 ft 167 kts 56°
2026-05-05 19:01 40.90869 9.53696 549 ft 175 kts 57°
2026-05-05 19:01 40.91550 9.55035 1191 ft 179 kts 57°
2026-05-05 19:01 40.92262 9.56426 1734 ft 191 kts 56°
2026-05-05 19:01 40.93064 9.57925 2196 ft 208 kts 56°
2026-05-05 19:02 40.93942 9.59552 2660 ft 225 kts 56°
2026-05-05 19:02 40.94888 9.61308 3034 ft 248 kts 56°
2026-05-05 19:02 40.95907 9.63207 3743 ft 256 kts 56°
2026-05-05 19:02 40.96943 9.65144 4585 ft 259 kts 55°
2026-05-05 19:03 40.97986 9.67099 5392 ft 264 kts 55°
2026-05-05 19:03 40.99008 9.69092 6139 ft 270 kts 57°
2026-05-05 19:03 41.00067 9.71267 6655 ft 287 kts 57°
2026-05-05 19:03 41.01149 9.73515 7280 ft 297 kts 57°
2026-05-05 19:04 41.02263 9.75833 8085 ft 301 kts 57°
2026-05-05 19:04 41.03390 9.78180 8890 ft 304 kts 57°
2026-05-05 19:04 41.04530 9.80556 9646 ft 308 kts 57°
2026-05-05 19:04 41.05673 9.82936 10354 ft 312 kts 57°
2026-05-05 19:05 41.06862 9.85415 10802 ft 326 kts 57°
2026-05-05 19:05 41.08100 9.87997 11374 ft 335 kts 57°
2026-05-05 19:05 41.09354 9.90611 12073 ft 338 kts 58°
2026-05-05 19:05 41.10601 9.93216 12761 ft 341 kts 58°
2026-05-05 19:06 41.11878 9.95889 13441 ft 344 kts 58°
2026-05-05 19:06 41.13168 9.98591 14084 ft 347 kts 58°
2026-05-05 19:06 41.14461 10.01304 14699 ft 351 kts 58°
2026-05-05 19:06 41.15763 10.04040 15282 ft 355 kts 58°
2026-05-05 19:07 41.17103 10.06855 15870 ft 360 kts 58°
2026-05-05 19:07 41.18429 10.09642 16440 ft 363 kts 58°
2026-05-05 19:07 41.19867 10.12456 16997 ft 367 kts 49°
2026-05-05 19:07 41.21879 10.14483 17478 ft 369 kts 22°
2026-05-05 19:08 41.24366 10.15220 18026 ft 363 kts 356°
2026-05-05 19:08 41.26844 10.14861 18581 ft 361 kts 347°
2026-05-05 19:08 41.29344 10.14341 19089 ft 365 kts 347°
2026-05-05 19:08 41.31851 10.13829 19581 ft 369 kts 347°
2026-05-05 19:09 41.34421 10.13324 20094 ft 372 kts 347°
2026-05-05 19:09 41.36986 10.12836 20605 ft 375 kts 347°
2026-05-05 19:09 41.39583 10.12352 21094 ft 377 kts 347°
2026-05-05 19:09 41.42173 10.11874 21560 ft 381 kts 347°
2026-05-05 19:10 41.44809 10.11390 22024 ft 383 kts 347°
2026-05-05 19:10 41.47467 10.10906 22487 ft 386 kts 347°
2026-05-05 19:10 41.50138 10.10418 22939 ft 389 kts 347°
2026-05-05 19:10 41.52831 10.09927 23362 ft 392 kts 347°
2026-05-05 19:11 41.55539 10.09433 23811 ft 394 kts 347°
2026-05-05 19:11 41.58258 10.08941 24243 ft 397 kts 347°
2026-05-05 19:11 41.61013 10.08439 24650 ft 400 kts 347°
2026-05-05 19:11 41.63758 10.07938 25060 ft 402 kts 346°
2026-05-05 19:12 41.66545 10.07428 25473 ft 404 kts 346°
2026-05-05 19:12 41.69330 10.06918 25875 ft 406 kts 346°
2026-05-05 19:12 41.72156 10.06399 26267 ft 409 kts 346°
2026-05-05 19:12 41.74995 10.05879 26631 ft 411 kts 346°
2026-05-05 19:13 41.77821 10.05361 26992 ft 414 kts 346°
2026-05-05 19:13 41.80692 10.04833 27352 ft 416 kts 345°
2026-05-05 19:13 41.83547 10.04310 27705 ft 418 kts 345°
2026-05-05 19:13 41.86436 10.03777 28043 ft 421 kts 345°
2026-05-05 19:14 41.89376 10.03234 28376 ft 424 kts 345°
2026-05-05 19:14 41.92292 10.02697 28709 ft 426 kts 345°
2026-05-05 19:14 41.95253 10.02151 29023 ft 429 kts 345°
2026-05-05 19:14 41.98231 10.01600 29328 ft 432 kts 345°
2026-05-05 19:15 42.01219 10.01049 29650 ft 434 kts 345°
2026-05-05 19:15 42.02659 10.00783 29810 ft 435 kts 344°
2026-05-05 19:15 42.05649 10.00230 30164 ft 437 kts 344°
2026-05-05 19:15 42.08692 9.99667 30516 ft 439 kts 344°
2026-05-05 19:16 42.11730 9.99104 30852 ft 440 kts 344°
2026-05-05 19:16 42.14730 9.98546 31144 ft 443 kts 344°
2026-05-05 19:16 42.16291 9.98255 31321 ft 443 kts 344°
2026-05-05 19:16 42.19328 9.97689 31630 ft 445 kts 344°
2026-05-05 19:17 42.22432 9.97111 31954 ft 447 kts 344°
2026-05-05 19:17 42.25486 9.96543 32238 ft 449 kts 344°
2026-05-05 19:17 42.28633 9.95956 32552 ft 450 kts 344°
2026-05-05 19:17 42.31718 9.95382 32816 ft 453 kts 344°
2026-05-05 19:18 42.34872 9.94792 33076 ft 455 kts 344°
2026-05-05 19:18 42.38025 9.94201 33344 ft 457 kts 344°
2026-05-05 19:18 42.41188 9.93609 33596 ft 459 kts 344°
2026-05-05 19:18 42.44328 9.93025 33875 ft 460 kts 344°
2026-05-05 19:19 42.47532 9.92426 34232 ft 459 kts 344°
2026-05-05 19:19 42.50703 9.91833 34558 ft 458 kts 343°
2026-05-05 19:19 42.53868 9.91239 34845 ft 458 kts 343°
2026-05-05 19:19 42.57040 9.90641 35074 ft 459 kts 344°
2026-05-05 19:20 42.60222 9.90038 35267 ft 461 kts 344°
2026-05-05 19:20 42.63381 9.89442 35484 ft 462 kts 344°
2026-05-05 19:20 42.66595 9.88838 35720 ft 462 kts 344°
2026-05-05 19:20 42.69748 9.88244 35920 ft 462 kts 344°
2026-05-05 19:21 42.76158 9.87149 35944 ft 467 kts 347°
2026-05-05 19:21 42.82709 9.86910 35951 ft 473 kts 354°
2026-05-05 19:22 42.89346 9.87297 35952 ft 475 kts 356°
2026-05-05 19:22 42.95954 9.87730 35950 ft 476 kts 356°
2026-05-05 19:23 43.02598 9.88144 35950 ft 478 kts 355°
2026-05-05 19:23 43.09223 9.88554 35950 ft 477 kts 355°
2026-05-05 19:24 43.15909 9.88964 35948 ft 478 kts 355°
2026-05-05 19:24 43.22582 9.89371 35947 ft 478 kts 355°
2026-05-05 19:25 43.29241 9.89753 35948 ft 474 kts 353°
2026-05-05 19:25 43.35738 9.89030 35946 ft 462 kts 342°
2026-05-05 19:26 43.41869 9.86707 35950 ft 450 kts 330°
2026-05-05 19:26 43.47419 9.83050 35947 ft 441 kts 322°
2026-05-05 19:27 43.52764 9.78876 35950 ft 442 kts 322°
2026-05-05 19:27 43.58136 9.74672 35947 ft 442 kts 322°
2026-05-05 19:28 43.63506 9.70487 35947 ft 443 kts 322°
2026-05-05 19:28 43.68931 9.66446 35939 ft 451 kts 329°
2026-05-05 19:29 43.74927 9.63601 35950 ft 457 kts 334°
2026-05-05 19:29 43.81025 9.60915 35954 ft 458 kts 334°
2026-05-05 19:30 43.87052 9.58215 35958 ft 458 kts 333°
2026-05-05 19:30 43.93101 9.55477 35408 ft 458 kts 333°
2026-05-05 19:31 43.96132 9.54096 34541 ft 464 kts 333°
2026-05-05 19:31 43.99234 9.52676 33503 ft 472 kts 333°
2026-05-05 19:31 44.02334 9.51253 32684 ft 472 kts 333°
2026-05-05 19:31 44.05438 9.49836 32133 ft 467 kts 333°
2026-05-05 19:32 44.08527 9.48428 31668 ft 460 kts 333°
2026-05-05 19:32 44.11534 9.47056 31194 ft 454 kts 333°
2026-05-05 19:32 44.14568 9.45667 30737 ft 447 kts 333°
2026-05-05 19:32 44.17511 9.44316 30305 ft 441 kts 334°
2026-05-05 19:33 44.20152 9.43102 29870 ft 436 kts 334°
2026-05-05 19:33 44.23048 9.41769 29372 ft 432 kts 334°
2026-05-05 19:33 44.25805 9.40496 28898 ft 428 kts 334°
2026-05-05 19:33 44.28636 9.39186 28375 ft 425 kts 334°
2026-05-05 19:34 44.31442 9.37887 27876 ft 421 kts 334°
2026-05-05 19:34 44.34212 9.36605 27351 ft 419 kts 335°
2026-05-05 19:34 44.36979 9.35325 26844 ft 417 kts 335°
2026-05-05 19:35 44.42452 9.32788 25853 ft 412 kts 335°
2026-05-05 19:35 44.45054 9.31581 25429 ft 408 kts 335°
2026-05-05 19:35 44.47708 9.30352 25075 ft 401 kts 335°
2026-05-05 19:35 44.50376 9.29113 24657 ft 396 kts 335°
2026-05-05 19:36 44.52948 9.27919 24290 ft 391 kts 335°
2026-05-05 19:36 44.55534 9.26713 23933 ft 385 kts 335°
2026-05-05 19:36 44.58065 9.25538 23667 ft 377 kts 335°
2026-05-05 19:36 44.60525 9.24392 23306 ft 373 kts 335°
2026-05-05 19:37 44.62971 9.23246 22889 ft 370 kts 335°
2026-05-05 19:37 44.65425 9.22098 22456 ft 368 kts 335°
2026-05-05 19:37 44.67824 9.20974 22045 ft 365 kts 335°
2026-05-05 19:37 44.70244 9.19840 21622 ft 363 kts 335°
2026-05-05 19:38 44.72641 9.18716 21218 ft 360 kts 336°
2026-05-05 19:38 44.74939 9.17413 20768 ft 350 kts 323°
2026-05-05 19:38 44.76737 9.15277 20331 ft 335 kts 303°
2026-05-05 19:38 44.77996 9.12582 19927 ft 326 kts 294°
2026-05-05 19:39 44.79125 9.09820 19498 ft 324 kts 293°
2026-05-05 19:39 44.80240 9.07066 19065 ft 322 kts 294°
2026-05-05 19:39 44.81339 9.04374 18654 ft 320 kts 294°
2026-05-05 19:39 44.82470 9.01621 18224 ft 319 kts 294°
2026-05-05 19:40 44.83585 8.98919 17816 ft 317 kts 294°
2026-05-05 19:40 44.84681 8.96270 17405 ft 315 kts 294°
2026-05-05 19:40 44.85787 8.93596 17012 ft 312 kts 295°
2026-05-05 19:40 44.86876 8.90966 16610 ft 311 kts 295°
2026-05-05 19:41 44.87971 8.88323 16207 ft 308 kts 295°
2026-05-05 19:41 44.89047 8.85716 15819 ft 306 kts 295°
2026-05-05 19:41 44.90125 8.83110 15414 ft 304 kts 295°
2026-05-05 19:41 44.91183 8.80551 15013 ft 302 kts 295°
2026-05-05 19:42 44.92258 8.77941 14597 ft 301 kts 296°
2026-05-05 19:42 44.93303 8.75409 14209 ft 299 kts 296°
2026-05-05 19:42 44.94346 8.72874 13813 ft 297 kts 296°
2026-05-05 19:42 44.95396 8.70324 13411 ft 295 kts 296°
2026-05-05 19:43 44.96423 8.67824 12996 ft 294 kts 296°
2026-05-05 19:43 44.97454 8.65312 12573 ft 294 kts 296°
2026-05-05 19:43 44.98475 8.62825 12153 ft 293 kts 296°
2026-05-05 19:43 44.99561 8.60362 11746 ft 294 kts 306°
2026-05-05 19:44 45.00234 8.59415 11515 ft 299 kts 320°
2026-05-05 19:44 45.02145 8.58192 11067 ft 304 kts 345°
2026-05-05 19:44 45.04216 8.57658 10708 ft 302 kts 348°
2026-05-05 19:44 45.06287 8.57144 10395 ft 299 kts 348°
2026-05-05 19:45 45.08321 8.56617 10216 ft 289 kts 347°
2026-05-05 19:45 45.10254 8.56098 10035 ft 280 kts 347°
2026-05-05 19:45 45.12157 8.55574 9862 ft 271 kts 347°
2026-05-05 19:45 45.13918 8.55086 9695 ft 263 kts 347°
2026-05-05 19:46 45.15671 8.54596 9505 ft 254 kts 347°
2026-05-05 19:46 45.17359 8.54126 9326 ft 246 kts 347°
2026-05-05 19:46 45.19027 8.53661 9088 ft 240 kts 348°
2026-05-05 19:46 45.20675 8.53203 8807 ft 238 kts 348°
2026-05-05 19:47 45.22284 8.52757 8509 ft 237 kts 348°
2026-05-05 19:47 45.23911 8.52307 8189 ft 236 kts 348°
2026-05-05 19:47 45.25543 8.51852 7868 ft 235 kts 348°
2026-05-05 19:47 45.27155 8.51404 7556 ft 234 kts 348°
2026-05-05 19:48 45.28756 8.50958 7242 ft 233 kts 348°
2026-05-05 19:48 45.30354 8.50587 6931 ft 232 kts 360°
2026-05-05 19:48 45.31911 8.51120 6581 ft 229 kts 32°
2026-05-05 19:48 45.33043 8.52608 6293 ft 224 kts 61°
2026-05-05 19:49 45.33582 8.54637 6025 ft 217 kts 82°
2026-05-05 19:49 45.33762 8.56062 5969 ft 217 kts 83°
2026-05-05 19:49 45.34102 8.58897 5971 ft 218 kts 82°
2026-05-05 19:49 45.34371 8.61009 5969 ft 219 kts 82°
2026-05-05 19:50 45.34595 8.63142 5971 ft 218 kts 94°
2026-05-05 19:50 45.34168 8.65167 5949 ft 213 kts 127°
2026-05-05 19:50 45.33086 8.66545 5966 ft 211 kts 156°
2026-05-05 19:50 45.31682 8.67114 5976 ft 209 kts 170°
2026-05-05 19:51 45.30240 8.67481 5973 ft 209 kts 171°
2026-05-05 19:51 45.28798 8.67843 5959 ft 209 kts 170°
2026-05-05 19:51 45.27373 8.68215 5959 ft 209 kts 170°
2026-05-05 19:51 45.25943 8.68599 5962 ft 209 kts 170°
2026-05-05 19:52 45.24489 8.68993 5965 ft 209 kts 170°
2026-05-05 19:52 45.23057 8.69385 5969 ft 209 kts 170°
2026-05-05 19:52 45.21631 8.69775 5971 ft 209 kts 170°
2026-05-05 19:52 45.20187 8.70170 5971 ft 210 kts 170°
2026-05-05 19:53 45.18749 8.70563 5974 ft 210 kts 170°
2026-05-05 19:53 45.17308 8.70960 5977 ft 209 kts 170°
2026-05-05 19:53 45.15886 8.71350 5964 ft 209 kts 170°
2026-05-05 19:53 45.14448 8.71744 5964 ft 209 kts 170°
2026-05-05 19:54 45.13021 8.72137 5952 ft 207 kts 170°
2026-05-05 19:54 45.11616 8.72522 5711 ft 205 kts 170°
2026-05-05 19:54 45.10188 8.72913 5352 ft 208 kts 170°
2026-05-05 19:54 45.08789 8.73297 5146 ft 200 kts 170°
2026-05-05 19:55 45.07426 8.73672 4975 ft 202 kts 170°
2026-05-05 19:55 45.06033 8.74052 4955 ft 206 kts 171°
2026-05-05 19:55 45.04614 8.74430 4959 ft 206 kts 171°
2026-05-05 19:55 45.03200 8.74798 4959 ft 206 kts 170°
2026-05-05 19:56 45.01777 8.75165 4961 ft 207 kts 171°
2026-05-05 19:56 45.00355 8.75531 4971 ft 207 kts 171°
2026-05-05 19:56 44.98973 8.76057 4950 ft 207 kts 154°
2026-05-05 19:56 44.97973 8.77518 4940 ft 212 kts 118°
2026-05-05 19:57 44.97772 8.79585 4955 ft 218 kts 83°
2026-05-05 19:57 44.98146 8.80928 4949 ft 221 kts 59°
2026-05-05 19:57 44.99786 8.82553 4962 ft 224 kts 19°
2026-05-05 19:57 45.01304 8.83148 4965 ft 224 kts 14°
2026-05-05 19:58 45.02817 8.83676 4957 ft 224 kts 13°
2026-05-05 19:58 45.04338 8.84201 4949 ft 224 kts 14°
2026-05-05 19:58 45.05856 8.84723 4945 ft 225 kts 13°
2026-05-05 19:58 45.07409 8.85017 4946 ft 224 kts 358°
2026-05-05 19:59 45.08956 8.84771 4971 ft 224 kts 350°
2026-05-05 19:59 45.10489 8.84413 4967 ft 224 kts 349°
2026-05-05 19:59 45.12023 8.84066 4969 ft 224 kts 350°
2026-05-05 19:59 45.13544 8.83753 4780 ft 218 kts 352°
2026-05-05 20:00 45.15060 8.83464 4331 ft 220 kts 353°
2026-05-05 20:00 45.16571 8.83194 4005 ft 216 kts 353°
2026-05-05 20:00 45.18071 8.82939 3979 ft 218 kts 354°
2026-05-05 20:00 45.19599 8.82684 3972 ft 218 kts 353°
2026-05-05 20:01 45.21101 8.82435 3967 ft 217 kts 354°
2026-05-05 20:01 45.22596 8.82190 3973 ft 217 kts 354°
2026-05-05 20:01 45.24111 8.81943 3969 ft 217 kts 354°
2026-05-05 20:01 45.25613 8.81696 3969 ft 218 kts 354°
2026-05-05 20:02 45.27121 8.81448 3970 ft 218 kts 353°
2026-05-05 20:02 45.28628 8.81198 3963 ft 218 kts 354°
2026-05-05 20:02 45.30156 8.80943 3971 ft 218 kts 354°
2026-05-05 20:02 45.31670 8.80693 3973 ft 218 kts 354°
2026-05-05 20:03 45.33170 8.80445 3976 ft 218 kts 354°
2026-05-05 20:03 45.34686 8.80194 3978 ft 218 kts 354°
2026-05-05 20:03 45.36200 8.80004 3976 ft 217 kts
2026-05-05 20:03 45.37697 8.80001 3974 ft 216 kts 359°
2026-05-05 20:04 45.39208 8.79827 3977 ft 216 kts 354°
2026-05-05 20:04 45.40714 8.79500 3976 ft 217 kts 351°
2026-05-05 20:04 45.42205 8.79112 3974 ft 217 kts 350°
2026-05-05 20:04 45.43685 8.78705 3972 ft 214 kts 350°
2026-05-05 20:05 45.45083 8.78314 3922 ft 197 kts 350°
2026-05-05 20:05 45.46397 8.77946 3715 ft 188 kts 350°
2026-05-05 20:05 45.47641 8.77600 3465 ft 182 kts 350°
2026-05-05 20:05 45.48890 8.77254 3220 ft 179 kts 350°
2026-05-05 20:06 45.50112 8.76916 2986 ft 178 kts 350°
2026-05-05 20:06 45.51333 8.76579 2752 ft 177 kts 350°
2026-05-05 20:06 45.52531 8.76248 2558 ft 176 kts 350°
2026-05-05 20:06 45.53743 8.75913 2305 ft 174 kts 350°
2026-05-05 20:07 45.54919 8.75589 2061 ft 173 kts 350°
2026-05-05 20:07 45.56107 8.75261 1821 ft 171 kts 349°
2026-05-05 20:07 45.57276 8.74937 1592 ft 171 kts 349°
2026-05-05 20:07 45.58433 8.74617 1371 ft 170 kts 349°
2026-05-05 20:08 45.59563 8.74305 1140 ft 159 kts 349°
2026-05-05 20:08 45.60585 8.74021 924 ft 144 kts 349°
2026-05-05 20:08 45.61582 8.73748 871 ft 156 kts 349°
2026-05-05 20:08 45.62629 8.73464 1708 ft 154 kts 349°
2026-05-05 20:09 45.63649 8.73184 2625 ft 153 kts 351°
2026-05-05 20:09 45.64714 8.73335 3272 ft 165 kts 32°
2026-05-05 20:09 45.65417 8.74660 3811 ft 181 kts 68°
2026-05-05 20:09 45.65940 8.76434 3979 ft 204 kts 66°
2026-05-05 20:10 45.66555 8.78264 3983 ft 209 kts 64°
2026-05-05 20:10 45.67210 8.80121 3979 ft 209 kts 64°
2026-05-05 20:10 45.67863 8.81958 3975 ft 210 kts 65°
2026-05-05 20:10 45.68177 8.84052 3921 ft 218 kts 96°
2026-05-05 20:11 45.67618 8.85991 3871 ft 213 kts 133°
2026-05-05 20:11 45.66389 8.87141 3944 ft 213 kts 158°
2026-05-05 20:11 45.65002 8.87819 3966 ft 211 kts 162°
2026-05-05 20:11 45.63573 8.88418 3972 ft 211 kts 163°
2026-05-05 20:12 45.62167 8.88990 3974 ft 211 kts 163°
2026-05-05 20:12 45.60746 8.89561 3973 ft 211 kts 163°
2026-05-05 20:12 45.59339 8.90125 3973 ft 210 kts 163°
2026-05-05 20:12 45.57935 8.90687 3973 ft 210 kts 163°
2026-05-05 20:13 45.56512 8.91261 3972 ft 209 kts 163°
2026-05-05 20:13 45.55128 8.91823 3971 ft 209 kts 163°
2026-05-05 20:13 45.53731 8.92391 3969 ft 209 kts 163°
2026-05-05 20:13 45.52329 8.92962 3971 ft 209 kts 163°
2026-05-05 20:14 45.50926 8.93532 3971 ft 209 kts 163°
2026-05-05 20:14 45.49513 8.94107 3970 ft 208 kts 163°
2026-05-05 20:14 45.48131 8.94671 3969 ft 208 kts 163°
2026-05-05 20:14 45.46737 8.95243 3970 ft 208 kts 163°
2026-05-05 20:15 45.45334 8.95820 3968 ft 208 kts 163°
2026-05-05 20:15 45.43932 8.96398 3969 ft 208 kts 163°
2026-05-05 20:15 45.42534 8.96974 3967 ft 208 kts 163°
2026-05-05 20:15 45.41157 8.97542 3967 ft 208 kts 163°
2026-05-05 20:16 45.39752 8.98124 3969 ft 208 kts 163°
2026-05-05 20:16 45.38339 8.98520 3963 ft 208 kts 177°
2026-05-05 20:16 45.36869 8.98509 4019 ft 212 kts 181°
2026-05-05 20:16 45.35384 8.98434 4572 ft 218 kts 181°
2026-05-05 20:17 45.33903 8.98382 5327 ft 212 kts 181°
2026-05-05 20:17 45.32395 8.98357 5804 ft 219 kts 181°
2026-05-05 20:17 45.30871 8.98349 5961 ft 221 kts 180°
2026-05-05 20:17 45.29337 8.98349 5964 ft 220 kts 180°
2026-05-05 20:18 45.27808 8.98355 5968 ft 219 kts 180°
2026-05-05 20:18 45.26288 8.98363 5965 ft 218 kts 180°
2026-05-05 20:18 45.24747 8.98371 5962 ft 218 kts 180°
2026-05-05 20:18 45.23231 8.98379 5959 ft 218 kts 180°
2026-05-05 20:19 45.21704 8.98330 5962 ft 218 kts 189°
2026-05-05 20:19 45.20354 8.97417 5956 ft 219 kts 222°
2026-05-05 20:19 45.19511 8.95647 5958 ft 223 kts 249°
2026-05-05 20:19 45.19342 8.93448 5957 ft 228 kts 277°
2026-05-05 20:20 45.19939 8.91376 5947 ft 233 kts 306°
2026-05-05 20:20 45.21215 8.89941 5957 ft 237 kts 337°
2026-05-05 20:20 45.22830 8.89593 5953 ft 239 kts
2026-05-05 20:20 45.24335 8.90473 5959 ft 237 kts 41°
2026-05-05 20:21 45.25283 8.92354 5963 ft 233 kts 75°
2026-05-05 20:21 45.25362 8.94598 5969 ft 228 kts 109°
2026-05-05 20:21 45.24580 8.96491 5965 ft 223 kts 142°
2026-05-05 20:21 45.23222 8.97447 5974 ft 219 kts 168°
2026-05-05 20:22 45.21712 8.97886 5982 ft 219 kts 168°
2026-05-05 20:22 45.20255 8.98470 5985 ft 219 kts 165°
2026-05-05 20:22 45.18803 8.99139 5979 ft 219 kts 164°
2026-05-05 20:22 45.17360 8.99823 5971 ft 219 kts 163°
2026-05-05 20:23 45.15895 9.00508 5969 ft 219 kts 165°
2026-05-05 20:23 45.14403 9.00711 5951 ft 218 kts 193°
2026-05-05 20:23 45.13092 8.99718 5964 ft 219 kts 226°
2026-05-05 20:23 45.12343 8.97840 5987 ft 222 kts 251°
2026-05-05 20:24 45.12321 8.95646 5963 ft 228 kts 287°
2026-05-05 20:24 45.13205 8.93783 5963 ft 234 kts 320°
2026-05-05 20:24 45.14680 8.92763 5981 ft 237 kts 340°
2026-05-05 20:24 45.16249 8.92047 5986 ft 237 kts 341°
2026-05-05 20:25 45.17804 8.91333 5978 ft 233 kts 340°
2026-05-05 20:25 45.19331 8.90616 5962 ft 227 kts 340°
2026-05-05 20:25 45.20827 8.89895 5975 ft 226 kts 340°
2026-05-05 20:25 45.22295 8.89183 5877 ft 223 kts 340°
2026-05-05 20:26 45.23767 8.88461 5536 ft 224 kts 340°
2026-05-05 20:26 45.25256 8.87729 5216 ft 224 kts 340°
2026-05-05 20:26 45.26723 8.87006 4926 ft 222 kts 340°
2026-05-05 20:26 45.28170 8.86292 4636 ft 221 kts 341°
2026-05-05 20:27 45.29621 8.85577 4348 ft 219 kts 341°
2026-05-05 20:27 45.31064 8.84864 4075 ft 217 kts 341°
2026-05-05 20:27 45.32481 8.84165 3991 ft 216 kts 341°
2026-05-05 20:27 45.33911 8.83461 3987 ft 217 kts 341°
2026-05-05 20:28 45.35334 8.82760 3983 ft 217 kts 341°
2026-05-05 20:28 45.36765 8.82052 3988 ft 217 kts 341°
2026-05-05 20:28 45.38202 8.81342 3983 ft 217 kts 341°
2026-05-05 20:28 45.39624 8.80639 3982 ft 217 kts 341°
2026-05-05 20:29 45.41052 8.79932 3982 ft 218 kts 341°
2026-05-05 20:29 45.42490 8.79220 3980 ft 218 kts 341°
2026-05-05 20:29 45.43972 8.78777 3958 ft 216 kts
2026-05-05 20:29 45.45415 8.79290 3987 ft 215 kts 17°
2026-05-05 20:30 45.46905 8.79342 3964 ft 217 kts 343°
2026-05-05 20:30 45.48267 8.78475 3992 ft 216 kts 332°
2026-05-05 20:30 45.49607 8.77471 3984 ft 215 kts 337°